iso_date,Year,Hour,Min,DOY,POS_DOY,Lat,Lon,BP,Ts,Ta,has_bp,has_ts,has_ta,BuoyID,Buoy_Type,Buoy_Owner,Logistics,Hemisphere
2022-03-08T20:55:06Z,2022,20,55,67.8716,67.8716,72.82308,-145.11879,-999.0,-40.0,-999.0,no,yes,no,300534062727510,PERIPH_6,ASL,ICEX_2022,North
2022-03-08T21:00:17Z,2022,21,0,67.8752,67.8752,72.82296,-145.11921,-999.0,-999.0,-999.0,no,yes,no,300534062727510,PERIPH_6,ASL,ICEX_2022,North
2022-03-08T21:10:13Z,2022,21,10,67.8821,67.8821,72.82273,-145.12003,-999.0,-999.0,-999.0,no,yes,no,300534062727510,PERIPH_6,ASL,ICEX_2022,North
2022-03-08T21:20:09Z,2022,21,20,67.889,67.889,72.82251,-145.12091,-999.0,-999.0,-999.0,no,yes,no,300534062727510,PERIPH_6,ASL,ICEX_2022,North
2022-03-08T21:30:14Z,2022,21,30,67.896,67.896,72.82227,-145.12183,-999.0,-999.0,-999.0,no,yes,no,300534062727510,PERIPH_6,ASL,ICEX_2022,North
2022-03-08T21:40:10Z,2022,21,40,67.9029,67.9029,72.82201,-145.12282,-999.0,-999.0,-999.0,no,yes,no,300534062727510,PERIPH_6,ASL,ICEX_2022,North
2022-03-08T21:50:06Z,2022,21,50,67.9098,67.9098,72.82173,-145.12386,-999.0,-999.0,-999.0,no,yes,no,300534062727510,PERIPH_6,ASL,ICEX_2022,North
2022-03-08T22:00:11Z,2022,22,0,67.9168,67.9168,72.82144,-145.12485,-999.0,-999.0,-999.0,no,yes,no,300534062727510,PERIPH_6,ASL,ICEX_2022,North
2022-03-08T22:10:07Z,2022,22,10,67.9237,67.9237,72.82115,-145.12591,-999.0,-999.0,-999.0,no,yes,no,300534062727510,PERIPH_6,ASL,ICEX_2022,North
2022-03-08T22:20:12Z,2022,22,20,67.9307,67.9307,72.82087,-145.12697,-999.0,-999.0,-999.0,no,yes,no,300534062727510,PERIPH_6,ASL,ICEX_2022,North
2022-03-08T22:30:08Z,2022,22,30,67.9376,67.9376,72.82058,-145.1281,-999.0,-999.0,-999.0,no,yes,no,300534062727510,PERIPH_6,ASL,ICEX_2022,North
2022-03-08T22:40:13Z,2022,22,40,67.9446,67.9446,72.82028,-145.12927,-999.0,-999.0,-999.0,no,yes,no,300534062727510,PERIPH_6,ASL,ICEX_2022,North
2022-03-08T22:50:09Z,2022,22,50,67.9515,67.9515,72.81999,-145.13049,-999.0,-999.0,-999.0,no,yes,no,300534062727510,PERIPH_6,ASL,ICEX_2022,North
2022-03-08T23:00:14Z,2022,23,0,67.9585,67.9585,72.81969,-145.13178,-999.0,-999.0,-999.0,no,yes,no,300534062727510,PERIPH_6,ASL,ICEX_2022,North
2022-03-08T23:10:10Z,2022,23,10,67.9654,67.9654,72.8194,-145.13308,-999.0,-999.0,-999.0,no,yes,no,300534062727510,PERIPH_6,ASL,ICEX_2022,North
2022-03-08T23:20:15Z,2022,23,20,67.9724,67.9724,72.81909,-145.13444,-999.0,-999.0,-999.0,no,yes,no,300534062727510,PERIPH_6,ASL,ICEX_2022,North
2022-03-08T23:30:11Z,2022,23,30,67.9793,67.9793,72.81877,-145.13583,-999.0,-999.0,-999.0,no,yes,no,300534062727510,PERIPH_6,ASL,ICEX_2022,North
2022-03-08T23:40:07Z,2022,23,40,67.9862,67.9862,72.81844,-145.13731,-999.0,-999.0,-999.0,no,yes,no,300534062727510,PERIPH_6,ASL,ICEX_2022,North
2022-03-08T23:50:12Z,2022,23,50,67.9932,67.9932,72.81812,-145.13879,-999.0,-999.0,-999.0,no,yes,no,300534062727510,PERIPH_6,ASL,ICEX_2022,North
2022-03-09T00:00:08Z,2022,0,0,68.0001,68.0001,72.81779,-145.14025,-999.0,-999.0,-999.0,no,yes,no,300534062727510,PERIPH_6,ASL,ICEX_2022,North
2022-03-09T00:10:13Z,2022,0,10,68.0071,68.0071,72.81746,-145.14169,-999.0,-999.0,-999.0,no,yes,no,300534062727510,PERIPH_6,ASL,ICEX_2022,North
2022-03-09T00:20:09Z,2022,0,20,68.014,68.014,72.81713,-145.14308,-999.0,-999.0,-999.0,no,yes,no,300534062727510,PERIPH_6,ASL,ICEX_2022,North
2022-03-09T00:30:14Z,2022,0,30,68.021,68.021,72.81681,-145.14447,-999.0,-999.0,-999.0,no,yes,no,300534062727510,PERIPH_6,ASL,ICEX_2022,North
2022-03-09T00:40:10Z,2022,0,40,68.0279,68.0279,72.81649,-145.14586,-999.0,-999.0,-999.0,no,yes,no,300534062727510,PERIPH_6,ASL,ICEX_2022,North
2022-03-09T00:50:15Z,2022,0,50,68.0349,68.0349,72.81619,-145.14721,-999.0,-999.0,-999.0,no,yes,no,300534062727510,PERIPH_6,ASL,ICEX_2022,North
2022-03-09T01:00:11Z,2022,1,0,68.0418,68.0418,72.8159,-145.14847,-999.0,-999.0,-999.0,no,yes,no,300534062727510,PERIPH_6,ASL,ICEX_2022,North
2022-03-09T01:10:07Z,2022,1,10,68.0487,68.0487,72.81562,-145.1497,-999.0,-999.0,-999.0,no,yes,no,300534062727510,PERIPH_6,ASL,ICEX_2022,North
2022-03-09T01:20:12Z,2022,1,20,68.0557,68.0557,72.81534,-145.15091,-999.0,-999.0,-999.0,no,yes,no,300534062727510,PERIPH_6,ASL,ICEX_2022,North
2022-03-09T01:30:08Z,2022,1,30,68.0626,68.0626,72.81507,-145.15204,-999.0,-999.0,-999.0,no,yes,no,300534062727510,PERIPH_6,ASL,ICEX_2022,North
2022-03-09T01:40:13Z,2022,1,40,68.0696,68.0696,72.81479,-145.15317,-999.0,-999.0,-999.0,no,yes,no,300534062727510,PERIPH_6,ASL,ICEX_2022,North
2022-03-09T01:50:09Z,2022,1,50,68.0765,68.0765,72.81453,-145.15432,-999.0,-999.0,-999.0,no,yes,no,300534062727510,PERIPH_6,ASL,ICEX_2022,North
2022-03-09T02:00:14Z,2022,2,0,68.0835,68.0835,72.81427,-145.15547,-999.0,-999.0,-999.0,no,yes,no,300534062727510,PERIPH_6,ASL,ICEX_2022,North
2022-03-09T02:10:10Z,2022,2,10,68.0904,68.0904,72.81404,-145.15663,-999.0,-999.0,-999.0,no,yes,no,300534062727510,PERIPH_6,ASL,ICEX_2022,North
2022-03-09T02:20:06Z,2022,2,20,68.0973,68.0973,72.8138,-145.15785,-999.0,-999.0,-999.0,no,yes,no,300534062727510,PERIPH_6,ASL,ICEX_2022,North
2022-03-09T02:30:11Z,2022,2,30,68.1043,68.1043,72.81357,-145.15904,-999.0,-999.0,-999.0,no,yes,no,300534062727510,PERIPH_6,ASL,ICEX_2022,North
2022-03-09T02:40:07Z,2022,2,40,68.1112,68.1112,72.81334,-145.16022,-999.0,-999.0,-999.0,no,yes,no,300534062727510,PERIPH_6,ASL,ICEX_2022,North
2022-03-09T02:50:12Z,2022,2,50,68.1182,68.1182,72.81311,-145.16139,-999.0,-999.0,-999.0,no,yes,no,300534062727510,PERIPH_6,ASL,ICEX_2022,North
2022-03-09T03:00:08Z,2022,3,0,68.1251,68.1251,72.81289,-145.16257,-999.0,-999.0,-999.0,no,yes,no,300534062727510,PERIPH_6,ASL,ICEX_2022,North
2022-03-09T03:10:13Z,2022,3,10,68.1321,68.1321,72.81266,-145.16374,-999.0,-999.0,-999.0,no,yes,no,300534062727510,PERIPH_6,ASL,ICEX_2022,North
2022-03-09T03:20:09Z,2022,3,20,68.139,68.139,72.81243,-145.16488,-999.0,-999.0,-999.0,no,yes,no,300534062727510,PERIPH_6,ASL,ICEX_2022,North
2022-03-09T03:30:14Z,2022,3,30,68.146,68.146,72.81219,-145.16603,-999.0,-999.0,-999.0,no,yes,no,300534062727510,PERIPH_6,ASL,ICEX_2022,North
2022-03-09T03:40:10Z,2022,3,40,68.1529,68.1529,72.81196,-145.16718,-999.0,-999.0,-999.0,no,yes,no,300534062727510,PERIPH_6,ASL,ICEX_2022,North
2022-03-09T03:50:06Z,2022,3,50,68.1598,68.1598,72.81172,-145.16831,-999.0,-999.0,-999.0,no,yes,no,300534062727510,PERIPH_6,ASL,ICEX_2022,North
2022-03-09T04:00:11Z,2022,4,0,68.1668,68.1668,72.81147,-145.16941,-999.0,-999.0,-999.0,no,yes,no,300534062727510,PERIPH_6,ASL,ICEX_2022,North
2022-03-09T04:10:07Z,2022,4,10,68.1737,68.1737,72.81121,-145.17051,-999.0,-999.0,-999.0,no,yes,no,300534062727510,PERIPH_6,ASL,ICEX_2022,North
2022-03-09T04:20:12Z,2022,4,20,68.1807,68.1807,72.81095,-145.17163,-999.0,-999.0,-999.0,no,yes,no,300534062727510,PERIPH_6,ASL,ICEX_2022,North
2022-03-09T04:30:08Z,2022,4,30,68.1876,68.1876,72.81068,-145.17275,-999.0,-999.0,-999.0,no,yes,no,300534062727510,PERIPH_6,ASL,ICEX_2022,North
2022-03-09T04:40:13Z,2022,4,40,68.1946,68.1946,72.81041,-145.17387,-999.0,-999.0,-999.0,no,yes,no,300534062727510,PERIPH_6,ASL,ICEX_2022,North
2022-03-09T04:50:09Z,2022,4,50,68.2015,68.2015,72.81014,-145.17498,-999.0,-999.0,-999.0,no,yes,no,300534062727510,PERIPH_6,ASL,ICEX_2022,North
2022-03-09T05:00:14Z,2022,5,0,68.2085,68.2085,72.80988,-145.17612,-999.0,-999.0,-999.0,no,yes,no,300534062727510,PERIPH_6,ASL,ICEX_2022,North
2022-03-09T05:10:10Z,2022,5,10,68.2154,68.2154,72.80959,-145.17727,-999.0,-999.0,-999.0,no,yes,no,300534062727510,PERIPH_6,ASL,ICEX_2022,North
2022-03-09T05:20:15Z,2022,5,20,68.2224,68.2224,72.8093,-145.17844,-999.0,-999.0,-999.0,no,yes,no,300534062727510,PERIPH_6,ASL,ICEX_2022,North
2022-03-09T05:30:11Z,2022,5,30,68.2293,68.2293,72.80901,-145.17961,-999.0,-999.0,-999.0,no,yes,no,300534062727510,PERIPH_6,ASL,ICEX_2022,North
2022-03-09T05:40:07Z,2022,5,40,68.2362,68.2362,72.80872,-145.18081,-999.0,-999.0,-999.0,no,yes,no,300534062727510,PERIPH_6,ASL,ICEX_2022,North
2022-03-09T05:50:12Z,2022,5,50,68.2432,68.2432,72.80844,-145.18203,-999.0,-999.0,-999.0,no,yes,no,300534062727510,PERIPH_6,ASL,ICEX_2022,North
2022-03-09T06:00:08Z,2022,6,0,68.2501,68.2501,72.80817,-145.18326,-999.0,-999.0,-999.0,no,yes,no,300534062727510,PERIPH_6,ASL,ICEX_2022,North
2022-03-09T06:10:13Z,2022,6,10,68.2571,68.2571,72.8079,-145.18454,-999.0,-999.0,-999.0,no,yes,no,300534062727510,PERIPH_6,ASL,ICEX_2022,North
2022-03-09T06:20:09Z,2022,6,20,68.264,68.264,72.80765,-145.18583,-999.0,-999.0,-999.0,no,yes,no,300534062727510,PERIPH_6,ASL,ICEX_2022,North
2022-03-09T06:30:14Z,2022,6,30,68.271,68.271,72.8074,-145.18717,-999.0,-999.0,-999.0,no,yes,no,300534062727510,PERIPH_6,ASL,ICEX_2022,North
2022-03-09T06:40:10Z,2022,6,40,68.2779,68.2779,72.80716,-145.1885,-999.0,-999.0,-999.0,no,yes,no,300534062727510,PERIPH_6,ASL,ICEX_2022,North
2022-03-09T06:50:15Z,2022,6,50,68.2849,68.2849,72.80692,-145.18981,-999.0,-999.0,-999.0,no,yes,no,300534062727510,PERIPH_6,ASL,ICEX_2022,North
2022-03-09T07:00:11Z,2022,7,0,68.2918,68.2918,72.80668,-145.19109,-999.0,-999.0,-999.0,no,yes,no,300534062727510,PERIPH_6,ASL,ICEX_2022,North
2022-03-09T07:10:07Z,2022,7,10,68.2987,68.2987,72.80644,-145.19237,-999.0,-999.0,-999.0,no,yes,no,300534062727510,PERIPH_6,ASL,ICEX_2022,North
2022-03-09T07:20:12Z,2022,7,20,68.3057,68.3057,72.8062,-145.19361,-999.0,-999.0,-999.0,no,yes,no,300534062727510,PERIPH_6,ASL,ICEX_2022,North
2022-03-09T07:30:08Z,2022,7,30,68.3126,68.3126,72.80597,-145.19482,-999.0,-999.0,-999.0,no,yes,no,300534062727510,PERIPH_6,ASL,ICEX_2022,North
2022-03-09T07:40:13Z,2022,7,40,68.3196,68.3196,72.80573,-145.196,-999.0,-999.0,-999.0,no,yes,no,300534062727510,PERIPH_6,ASL,ICEX_2022,North
2022-03-09T07:50:09Z,2022,7,50,68.3265,68.3265,72.80549,-145.19716,-999.0,-999.0,-999.0,no,yes,no,300534062727510,PERIPH_6,ASL,ICEX_2022,North
2022-03-09T08:00:14Z,2022,8,0,68.3335,68.3335,72.80524,-145.19831,-999.0,-999.0,-999.0,no,yes,no,300534062727510,PERIPH_6,ASL,ICEX_2022,North
2022-03-09T08:10:10Z,2022,8,10,68.3404,68.3404,72.80499,-145.19946,-999.0,-999.0,-999.0,no,yes,no,300534062727510,PERIPH_6,ASL,ICEX_2022,North
2022-03-09T08:20:06Z,2022,8,20,68.3473,68.3473,72.80473,-145.20057,-999.0,-999.0,-999.0,no,yes,no,300534062727510,PERIPH_6,ASL,ICEX_2022,North
2022-03-09T08:30:11Z,2022,8,30,68.3543,68.3543,72.80448,-145.20163,-999.0,-999.0,-999.0,no,yes,no,300534062727510,PERIPH_6,ASL,ICEX_2022,North
2022-03-09T08:40:07Z,2022,8,40,68.3612,68.3612,72.80423,-145.20266,-999.0,-999.0,-999.0,no,yes,no,300534062727510,PERIPH_6,ASL,ICEX_2022,North
2022-03-09T08:50:12Z,2022,8,50,68.3682,68.3682,72.80397,-145.20366,-999.0,-999.0,-999.0,no,yes,no,300534062727510,PERIPH_6,ASL,ICEX_2022,North
2022-03-09T09:00:08Z,2022,9,0,68.3751,68.3751,72.8037,-145.20465,-999.0,-999.0,-999.0,no,yes,no,300534062727510,PERIPH_6,ASL,ICEX_2022,North
2022-03-09T09:10:13Z,2022,9,10,68.3821,68.3821,72.80344,-145.20561,-999.0,-999.0,-999.0,no,yes,no,300534062727510,PERIPH_6,ASL,ICEX_2022,North
2022-03-09T09:20:09Z,2022,9,20,68.389,68.389,72.80318,-145.20652,-999.0,-999.0,-999.0,no,yes,no,300534062727510,PERIPH_6,ASL,ICEX_2022,North
2022-03-09T09:30:14Z,2022,9,30,68.396,68.396,72.80292,-145.20739,-999.0,-999.0,-999.0,no,yes,no,300534062727510,PERIPH_6,ASL,ICEX_2022,North
2022-03-09T09:40:10Z,2022,9,40,68.4029,68.4029,72.80265,-145.20825,-999.0,-999.0,-999.0,no,yes,no,300534062727510,PERIPH_6,ASL,ICEX_2022,North
2022-03-09T09:50:15Z,2022,9,50,68.4099,68.4099,72.80238,-145.20908,-999.0,-999.0,-999.0,no,yes,no,300534062727510,PERIPH_6,ASL,ICEX_2022,North
2022-03-09T10:00:11Z,2022,10,0,68.4168,68.4168,72.80211,-145.20991,-999.0,-999.0,-999.0,no,yes,no,300534062727510,PERIPH_6,ASL,ICEX_2022,North
2022-03-09T10:10:07Z,2022,10,10,68.4237,68.4237,72.80183,-145.21073,-999.0,-999.0,-999.0,no,yes,no,300534062727510,PERIPH_6,ASL,ICEX_2022,North
2022-03-09T10:20:12Z,2022,10,20,68.4307,68.4307,72.80156,-145.2115,-999.0,-999.0,-999.0,no,yes,no,300534062727510,PERIPH_6,ASL,ICEX_2022,North
2022-03-09T10:30:08Z,2022,10,30,68.4376,68.4376,72.80129,-145.21218,-999.0,-999.0,-999.0,no,yes,no,300534062727510,PERIPH_6,ASL,ICEX_2022,North
2022-03-09T10:40:13Z,2022,10,40,68.4446,68.4446,72.80101,-145.21283,-999.0,-999.0,-999.0,no,yes,no,300534062727510,PERIPH_6,ASL,ICEX_2022,North
2022-03-09T10:50:09Z,2022,10,50,68.4515,68.4515,72.80075,-145.21339,-999.0,-999.0,-999.0,no,yes,no,300534062727510,PERIPH_6,ASL,ICEX_2022,North
2022-03-09T11:00:14Z,2022,11,0,68.4585,68.4585,72.80049,-145.21389,-999.0,-999.0,-999.0,no,yes,no,300534062727510,PERIPH_6,ASL,ICEX_2022,North
2022-03-09T11:10:10Z,2022,11,10,68.4654,68.4654,72.80022,-145.21441,-999.0,-999.0,-999.0,no,yes,no,300534062727510,PERIPH_6,ASL,ICEX_2022,North
2022-03-09T11:20:15Z,2022,11,20,68.4724,68.4724,72.79996,-145.21489,-999.0,-999.0,-999.0,no,yes,no,300534062727510,PERIPH_6,ASL,ICEX_2022,North
2022-03-09T11:30:11Z,2022,11,30,68.4793,68.4793,72.79967,-145.21537,-999.0,-999.0,-999.0,no,yes,no,300534062727510,PERIPH_6,ASL,ICEX_2022,North
2022-03-09T11:40:07Z,2022,11,40,68.4862,68.4862,72.79943,-145.21579,-999.0,-999.0,-999.0,no,yes,no,300534062727510,PERIPH_6,ASL,ICEX_2022,North
2022-03-09T11:50:12Z,2022,11,50,68.4932,68.4932,72.79922,-145.21611,-999.0,-999.0,-999.0,no,yes,no,300534062727510,PERIPH_6,ASL,ICEX_2022,North
2022-03-09T12:00:08Z,2022,12,0,68.5001,68.5001,72.79896,-145.21648,-999.0,-999.0,-999.0,no,yes,no,300534062727510,PERIPH_6,ASL,ICEX_2022,North
2022-03-09T12:10:13Z,2022,12,10,68.5071,68.5071,72.79869,-145.21686,-999.0,-999.0,-999.0,no,yes,no,300534062727510,PERIPH_6,ASL,ICEX_2022,North
2022-03-09T12:20:09Z,2022,12,20,68.514,68.514,72.79843,-145.21723,-999.0,-999.0,-999.0,no,yes,no,300534062727510,PERIPH_6,ASL,ICEX_2022,North
2022-03-09T12:30:14Z,2022,12,30,68.521,68.521,72.79816,-145.21756,-999.0,-999.0,-999.0,no,yes,no,300534062727510,PERIPH_6,ASL,ICEX_2022,North
2022-03-09T12:40:10Z,2022,12,40,68.5279,68.5279,72.79791,-145.21785,-999.0,-999.0,-999.0,no,yes,no,300534062727510,PERIPH_6,ASL,ICEX_2022,North
2022-03-09T12:50:06Z,2022,12,50,68.5348,68.5348,72.79767,-145.21808,-999.0,-999.0,-999.0,no,yes,no,300534062727510,PERIPH_6,ASL,ICEX_2022,North
2022-03-09T13:00:11Z,2022,13,0,68.5418,68.5418,72.79737,-145.21838,-999.0,-999.0,-999.0,no,yes,no,300534062727510,PERIPH_6,ASL,ICEX_2022,North
2022-03-09T13:10:07Z,2022,13,10,68.5487,68.5487,72.79709,-145.21868,-999.0,-999.0,-999.0,no,yes,no,300534062727510,PERIPH_6,ASL,ICEX_2022,North
2022-03-09T13:20:12Z,2022,13,20,68.5557,68.5557,72.79682,-145.21894,-999.0,-999.0,-999.0,no,yes,no,300534062727510,PERIPH_6,ASL,ICEX_2022,North
2022-03-09T13:30:08Z,2022,13,30,68.5626,68.5626,72.79655,-145.2192,-999.0,-999.0,-999.0,no,yes,no,300534062727510,PERIPH_6,ASL,ICEX_2022,North
2022-03-09T13:40:13Z,2022,13,40,68.5696,68.5696,72.79626,-145.21945,-999.0,-999.0,-999.0,no,yes,no,300534062727510,PERIPH_6,ASL,ICEX_2022,North
2022-03-09T13:50:18Z,2022,13,50,68.5766,68.5766,72.79599,-145.21968,-999.0,-999.0,-999.0,no,yes,no,300534062727510,PERIPH_6,ASL,ICEX_2022,North
2022-03-09T14:00:14Z,2022,14,0,68.5835,68.5835,72.7957,-145.21993,-999.0,-999.0,-999.0,no,yes,no,300534062727510,PERIPH_6,ASL,ICEX_2022,North
2022-03-09T14:10:10Z,2022,14,10,68.5904,68.5904,72.79541,-145.22015,-999.0,-999.0,-999.0,no,yes,no,300534062727510,PERIPH_6,ASL,ICEX_2022,North
2022-03-09T14:20:15Z,2022,14,20,68.5974,68.5974,72.79512,-145.22033,-999.0,-999.0,-999.0,no,yes,no,300534062727510,PERIPH_6,ASL,ICEX_2022,North
2022-03-09T14:30:11Z,2022,14,30,68.6043,68.6043,72.79486,-145.22052,-999.0,-999.0,-999.0,no,yes,no,300534062727510,PERIPH_6,ASL,ICEX_2022,North
2022-03-09T14:40:16Z,2022,14,40,68.6113,68.6113,72.79458,-145.22068,-999.0,-999.0,-999.0,no,yes,no,300534062727510,PERIPH_6,ASL,ICEX_2022,North
2022-03-09T14:50:12Z,2022,14,50,68.6182,68.6182,72.7943,-145.22083,-999.0,-999.0,-999.0,no,yes,no,300534062727510,PERIPH_6,ASL,ICEX_2022,North
2022-03-09T15:00:08Z,2022,15,0,68.6251,68.6251,72.79403,-145.22096,-999.0,-999.0,-999.0,no,yes,no,300534062727510,PERIPH_6,ASL,ICEX_2022,North
2022-03-09T15:10:13Z,2022,15,10,68.6321,68.6321,72.79377,-145.22101,-999.0,-999.0,-999.0,no,yes,no,300534062727510,PERIPH_6,ASL,ICEX_2022,North
2022-03-09T15:20:09Z,2022,15,20,68.639,68.639,72.7935,-145.22107,-999.0,-999.0,-999.0,no,yes,no,300534062727510,PERIPH_6,ASL,ICEX_2022,North
2022-03-09T15:30:14Z,2022,15,30,68.646,68.646,72.79323,-145.22114,-999.0,-999.0,-999.0,no,yes,no,300534062727510,PERIPH_6,ASL,ICEX_2022,North
2022-03-09T15:40:10Z,2022,15,40,68.6529,68.6529,72.79295,-145.22123,-999.0,-999.0,-999.0,no,yes,no,300534062727510,PERIPH_6,ASL,ICEX_2022,North
2022-03-09T15:50:15Z,2022,15,50,68.6599,68.6599,72.79266,-145.22131,-999.0,-999.0,-999.0,no,yes,no,300534062727510,PERIPH_6,ASL,ICEX_2022,North
2022-03-09T16:00:11Z,2022,16,0,68.6668,68.6668,72.79239,-145.22137,-999.0,-999.0,-999.0,no,yes,no,300534062727510,PERIPH_6,ASL,ICEX_2022,North
2022-03-09T16:10:07Z,2022,16,10,68.6737,68.6737,72.79212,-145.22139,-999.0,-999.0,-999.0,no,yes,no,300534062727510,PERIPH_6,ASL,ICEX_2022,North
2022-03-09T16:20:12Z,2022,16,20,68.6807,68.6807,72.79186,-145.22142,-999.0,-999.0,-999.0,no,yes,no,300534062727510,PERIPH_6,ASL,ICEX_2022,North
2022-03-09T16:30:08Z,2022,16,30,68.6876,68.6876,72.79159,-145.22141,-999.0,-999.0,-999.0,no,yes,no,300534062727510,PERIPH_6,ASL,ICEX_2022,North
2022-03-09T16:40:13Z,2022,16,40,68.6946,68.6946,72.79133,-145.22139,-999.0,-999.0,-999.0,no,yes,no,300534062727510,PERIPH_6,ASL,ICEX_2022,North
2022-03-09T16:50:09Z,2022,16,50,68.7015,68.7015,72.79111,-145.22125,-999.0,-999.0,-999.0,no,yes,no,300534062727510,PERIPH_6,ASL,ICEX_2022,North
2022-03-09T17:00:14Z,2022,17,0,68.7085,68.7085,72.79087,-145.22108,-999.0,-999.0,-999.0,no,yes,no,300534062727510,PERIPH_6,ASL,ICEX_2022,North
2022-03-09T17:10:10Z,2022,17,10,68.7154,68.7154,72.79064,-145.22094,-999.0,-999.0,-999.0,no,yes,no,300534062727510,PERIPH_6,ASL,ICEX_2022,North
2022-03-09T17:20:06Z,2022,17,20,68.7223,68.7223,72.79042,-145.22078,-999.0,-999.0,-999.0,no,yes,no,300534062727510,PERIPH_6,ASL,ICEX_2022,North
2022-03-09T17:30:11Z,2022,17,30,68.7293,68.7293,72.79019,-145.22061,-999.0,-999.0,-999.0,no,yes,no,300534062727510,PERIPH_6,ASL,ICEX_2022,North
2022-03-09T17:40:07Z,2022,17,40,68.7362,68.7362,72.78996,-145.22049,-999.0,-999.0,-999.0,no,yes,no,300534062727510,PERIPH_6,ASL,ICEX_2022,North
2022-03-09T17:50:12Z,2022,17,50,68.7432,68.7432,72.78973,-145.22039,-999.0,-999.0,-999.0,no,yes,no,300534062727510,PERIPH_6,ASL,ICEX_2022,North
2022-03-09T18:00:08Z,2022,18,0,68.7501,68.7501,72.7895,-145.2203,-999.0,-999.0,-999.0,no,yes,no,300534062727510,PERIPH_6,ASL,ICEX_2022,North
2022-03-09T18:10:13Z,2022,18,10,68.7571,68.7571,72.78926,-145.22019,-999.0,-999.0,-999.0,no,yes,no,300534062727510,PERIPH_6,ASL,ICEX_2022,North
2022-03-09T18:20:09Z,2022,18,20,68.764,68.764,72.78903,-145.22011,-999.0,-999.0,-999.0,no,yes,no,300534062727510,PERIPH_6,ASL,ICEX_2022,North
2022-03-09T18:30:14Z,2022,18,30,68.771,68.771,72.78878,-145.22006,-999.0,-999.0,-999.0,no,yes,no,300534062727510,PERIPH_6,ASL,ICEX_2022,North
2022-03-09T18:40:10Z,2022,18,40,68.7779,68.7779,72.78854,-145.22007,-999.0,-999.0,-999.0,no,yes,no,300534062727510,PERIPH_6,ASL,ICEX_2022,North
2022-03-09T18:50:15Z,2022,18,50,68.7849,68.7849,72.78827,-145.22011,-999.0,-999.0,-999.0,no,yes,no,300534062727510,PERIPH_6,ASL,ICEX_2022,North
2022-03-09T19:00:11Z,2022,19,0,68.7918,68.7918,72.78802,-145.22017,-999.0,-999.0,-999.0,no,yes,no,300534062727510,PERIPH_6,ASL,ICEX_2022,North
2022-03-09T19:10:07Z,2022,19,10,68.7987,68.7987,72.78778,-145.22021,-999.0,-999.0,-999.0,no,yes,no,300534062727510,PERIPH_6,ASL,ICEX_2022,North
2022-03-09T19:20:12Z,2022,19,20,68.8057,68.8057,72.78753,-145.22024,-999.0,-999.0,-999.0,no,yes,no,300534062727510,PERIPH_6,ASL,ICEX_2022,North
2022-03-09T19:30:08Z,2022,19,30,68.8126,68.8126,72.78731,-145.22026,-999.0,-999.0,-999.0,no,yes,no,300534062727510,PERIPH_6,ASL,ICEX_2022,North
2022-03-09T19:40:13Z,2022,19,40,68.8196,68.8196,72.78708,-145.22029,-999.0,-999.0,-999.0,no,yes,no,300534062727510,PERIPH_6,ASL,ICEX_2022,North
2022-03-09T19:50:09Z,2022,19,50,68.8265,68.8265,72.78687,-145.22026,-999.0,-999.0,-999.0,no,yes,no,300534062727510,PERIPH_6,ASL,ICEX_2022,North
2022-03-09T20:00:14Z,2022,20,0,68.8335,68.8335,72.78669,-145.22015,-999.0,-999.0,-999.0,no,yes,no,300534062727510,PERIPH_6,ASL,ICEX_2022,North
2022-03-09T20:10:10Z,2022,20,10,68.8404,68.8404,72.78652,-145.21999,-999.0,-999.0,-999.0,no,yes,no,300534062727510,PERIPH_6,ASL,ICEX_2022,North
2022-03-09T20:20:15Z,2022,20,20,68.8474,68.8474,72.78632,-145.21988,-999.0,-999.0,-999.0,no,yes,no,300534062727510,PERIPH_6,ASL,ICEX_2022,North
2022-03-09T20:30:11Z,2022,20,30,68.8543,68.8543,72.78609,-145.21994,-999.0,-999.0,-999.0,no,yes,no,300534062727510,PERIPH_6,ASL,ICEX_2022,North
2022-03-09T20:40:07Z,2022,20,40,68.8612,68.8612,72.78587,-145.21998,-999.0,-999.0,-999.0,no,yes,no,300534062727510,PERIPH_6,ASL,ICEX_2022,North
2022-03-09T20:50:12Z,2022,20,50,68.8682,68.8682,72.78565,-145.22003,-999.0,-999.0,-999.0,no,yes,no,300534062727510,PERIPH_6,ASL,ICEX_2022,North
2022-03-09T21:00:08Z,2022,21,0,68.8751,68.8751,72.78543,-145.21999,-999.0,-999.0,-999.0,no,yes,no,300534062727510,PERIPH_6,ASL,ICEX_2022,North
2022-03-09T21:10:13Z,2022,21,10,68.8821,68.8821,72.78517,-145.22,-999.0,-999.0,-999.0,no,yes,no,300534062727510,PERIPH_6,ASL,ICEX_2022,North
2022-03-09T21:20:09Z,2022,21,20,68.889,68.889,72.78498,-145.21999,-999.0,-999.0,-999.0,no,yes,no,300534062727510,PERIPH_6,ASL,ICEX_2022,North
2022-03-09T21:30:14Z,2022,21,30,68.896,68.896,72.78479,-145.21992,-999.0,-999.0,-999.0,no,yes,no,300534062727510,PERIPH_6,ASL,ICEX_2022,North
2022-03-09T21:40:10Z,2022,21,40,68.9029,68.9029,72.78455,-145.21999,-999.0,-999.0,-999.0,no,yes,no,300534062727510,PERIPH_6,ASL,ICEX_2022,North
2022-03-09T21:50:15Z,2022,21,50,68.9099,68.9099,72.78434,-145.22002,-999.0,-999.0,-999.0,no,yes,no,300534062727510,PERIPH_6,ASL,ICEX_2022,North
2022-03-09T22:00:11Z,2022,22,0,68.9168,68.9168,72.78415,-145.22004,-999.0,-999.0,-999.0,no,yes,no,300534062727510,PERIPH_6,ASL,ICEX_2022,North
2022-03-09T22:10:07Z,2022,22,10,68.9237,68.9237,72.78394,-145.22,-999.0,-999.0,-999.0,no,yes,no,300534062727510,PERIPH_6,ASL,ICEX_2022,North
2022-03-09T22:20:12Z,2022,22,20,68.9307,68.9307,72.78375,-145.22004,-999.0,-999.0,-999.0,no,yes,no,300534062727510,PERIPH_6,ASL,ICEX_2022,North
2022-03-09T22:30:08Z,2022,22,30,68.9376,68.9376,72.78357,-145.2201,-999.0,-999.0,-999.0,no,yes,no,300534062727510,PERIPH_6,ASL,ICEX_2022,North
2022-03-09T22:40:13Z,2022,22,40,68.9446,68.9446,72.78336,-145.22025,-999.0,-999.0,-999.0,no,yes,no,300534062727510,PERIPH_6,ASL,ICEX_2022,North
2022-03-09T22:50:09Z,2022,22,50,68.9515,68.9515,72.78318,-145.22035,-999.0,-999.0,-999.0,no,yes,no,300534062727510,PERIPH_6,ASL,ICEX_2022,North
2022-03-09T23:00:14Z,2022,23,0,68.9585,68.9585,72.783,-145.22037,-999.0,-999.0,-999.0,no,yes,no,300534062727510,PERIPH_6,ASL,ICEX_2022,North
2022-03-09T23:10:10Z,2022,23,10,68.9654,68.9654,72.78286,-145.22038,-999.0,-999.0,-999.0,no,yes,no,300534062727510,PERIPH_6,ASL,ICEX_2022,North
2022-03-09T23:20:06Z,2022,23,20,68.9723,68.9723,72.78275,-145.22036,-999.0,-999.0,-999.0,no,yes,no,300534062727510,PERIPH_6,ASL,ICEX_2022,North
2022-03-09T23:30:11Z,2022,23,30,68.9793,68.9793,72.78266,-145.2204,-999.0,-999.0,-999.0,no,yes,no,300534062727510,PERIPH_6,ASL,ICEX_2022,North
2022-03-09T23:40:07Z,2022,23,40,68.9862,68.9862,72.78258,-145.22041,-999.0,-999.0,-999.0,no,yes,no,300534062727510,PERIPH_6,ASL,ICEX_2022,North
2022-03-09T23:50:12Z,2022,23,50,68.9932,68.9932,72.78252,-145.22047,-999.0,-999.0,-999.0,no,yes,no,300534062727510,PERIPH_6,ASL,ICEX_2022,North
2022-03-10T00:00:08Z,2022,0,0,69.0001,69.0001,72.78236,-145.22071,-999.0,-999.0,-999.0,no,yes,no,300534062727510,PERIPH_6,ASL,ICEX_2022,North
2022-03-10T00:10:13Z,2022,0,10,69.0071,69.0071,72.78211,-145.22109,-999.0,-999.0,-999.0,no,yes,no,300534062727510,PERIPH_6,ASL,ICEX_2022,North
2022-03-10T00:20:09Z,2022,0,20,69.014,69.014,72.78189,-145.22154,-999.0,-999.0,-999.0,no,yes,no,300534062727510,PERIPH_6,ASL,ICEX_2022,North